date,time,humid
2012-12-01,00:00,96.83
2012-12-01,01:00,98.67
2012-12-01,02:00,-999
2012-12-01,03:00,-999
2012-12-01,04:00,-999
2012-12-01,05:00,-999
2012-12-01,06:00,-999
2012-12-01,07:00,100
2012-12-01,08:00,83.83
2012-12-01,09:00,72.5
2012-12-01,10:00,66.83
2012-12-01,11:00,59
2012-12-01,12:00,55.33
2012-12-01,13:00,71.83
2012-12-01,14:00,71
2012-12-01,15:00,60.67
2012-12-01,16:00,66.33
2012-12-01,17:00,74
2012-12-01,18:00,84.17
2012-12-01,19:00,88.67
2012-12-01,20:00,89.33
2012-12-01,21:00,91.33
2012-12-01,22:00,92.83
2012-12-01,23:00,95.33
2012-12-02,00:00,98.83
2012-12-02,01:00,-999
2012-12-02,02:00,-999
2012-12-02,03:00,-999
2012-12-02,04:00,-999
2012-12-02,05:00,-999
2012-12-02,06:00,-999
2012-12-02,07:00,100
2012-12-02,08:00,86.17
2012-12-02,09:00,64.17
2012-12-02,10:00,60.5
2012-12-02,11:00,46.17
2012-12-02,12:00,49
2012-12-02,13:00,49
2012-12-02,14:00,65.5
2012-12-02,15:00,65.83
2012-12-02,16:00,66.33
2012-12-02,17:00,72.5
2012-12-02,18:00,78.17
2012-12-02,19:00,80.17
2012-12-02,20:00,85
2012-12-02,21:00,87
2012-12-02,22:00,91
2012-12-02,23:00,93.67
2012-12-03,00:00,95
2012-12-03,01:00,98.33
2012-12-03,02:00,98.33
2012-12-03,03:00,98.83
2012-12-03,04:00,98.5
2012-12-03,05:00,-999
2012-12-03,06:00,-999
2012-12-03,07:00,-999
2012-12-03,08:00,92.33
2012-12-03,09:00,66
2012-12-03,10:00,61.67
2012-12-03,11:00,57.17
2012-12-03,12:00,49.5
2012-12-03,13:00,53.33
2012-12-03,14:00,58.83
2012-12-03,15:00,57.33
2012-12-03,16:00,58.5
2012-12-03,17:00,59.83
2012-12-03,18:00,74.17
2012-12-03,19:00,81.83
2012-12-03,20:00,82
2012-12-03,21:00,84
2012-12-03,22:00,88.17
2012-12-03,23:00,90.33
2012-12-04,00:00,92.83
2012-12-04,01:00,93.33
2012-12-04,02:00,99.33
2012-12-04,03:00,97
2012-12-04,04:00,96.83
2012-12-04,05:00,96.83
2012-12-04,06:00,99
2012-12-04,07:00,97.5
2012-12-04,08:00,86.67
2012-12-04,09:00,72
2012-12-04,10:00,66.67
2012-12-04,11:00,48.67
2012-12-04,12:00,50.83
2012-12-04,13:00,50.17
2012-12-04,14:00,58.17
2012-12-04,15:00,59.33
2012-12-04,16:00,57.5
2012-12-04,17:00,65.83
2012-12-04,18:00,71.33
2012-12-04,19:00,75
2012-12-04,20:00,78.5
2012-12-04,21:00,79.33
2012-12-04,22:00,78.83
2012-12-04,23:00,81.67
2012-12-05,00:00,86
2012-12-05,01:00,89.17
2012-12-05,02:00,91.33
2012-12-05,03:00,96.83
2012-12-05,04:00,96.83
2012-12-05,05:00,94
2012-12-05,06:00,98.33
2012-12-05,07:00,92
2012-12-05,08:00,78
2012-12-05,09:00,65.67
2012-12-05,10:00,59
2012-12-05,11:00,51.33
2012-12-05,12:00,50.83
2012-12-05,13:00,45.83
2012-12-05,14:00,52
2012-12-05,15:00,57.33
2012-12-05,16:00,57.17
2012-12-05,17:00,59.67
2012-12-05,18:00,71
2012-12-05,19:00,76.5
2012-12-05,20:00,81.83
2012-12-05,21:00,84
2012-12-05,22:00,86
2012-12-05,23:00,90.17
2012-12-06,00:00,92.5
2012-12-06,01:00,92.67
2012-12-06,02:00,95
2012-12-06,03:00,96.67
2012-12-06,04:00,98.17
2012-12-06,05:00,98.33
2012-12-06,06:00,99.83
2012-12-06,07:00,98.67
2012-12-06,08:00,89.17
2012-12-06,09:00,65.17
2012-12-06,10:00,53.33
2012-12-06,11:00,53.67
2012-12-06,12:00,50.83
2012-12-06,13:00,52.67
2012-12-06,14:00,62.83
2012-12-06,15:00,67.17
2012-12-06,16:00,67.67
2012-12-06,17:00,-999
2012-12-06,18:00,80
2012-12-06,19:00,83.33
2012-12-06,20:00,86.83
2012-12-06,21:00,89.83
2012-12-06,22:00,88.83
2012-12-06,23:00,89.5
2012-12-07,00:00,92.5
2012-12-07,01:00,94.17
2012-12-07,02:00,96.83
2012-12-07,03:00,98.17
2012-12-07,04:00,99.83
2012-12-07,05:00,97.33
2012-12-07,06:00,97.33
2012-12-07,07:00,96.67
2012-12-07,08:00,86.83
2012-12-07,09:00,65.17
2012-12-07,10:00,66.33
2012-12-07,11:00,56.67
2012-12-07,12:00,69.17
2012-12-07,13:00,63.83
2012-12-07,14:00,60.17
2012-12-07,15:00,62.67
2012-12-07,16:00,65.17
2012-12-07,17:00,68.83
2012-12-07,18:00,79.83
2012-12-07,19:00,88.67
2012-12-07,20:00,88.83
2012-12-07,21:00,92.5
2012-12-07,22:00,92.17
2012-12-07,23:00,92.5
2012-12-08,00:00,91.5
2012-12-08,01:00,94
2012-12-08,02:00,96.5
2012-12-08,03:00,98
2012-12-08,04:00,98.5
2012-12-08,05:00,96.67
2012-12-08,06:00,99.17
2012-12-08,07:00,97
2012-12-08,08:00,88.83
2012-12-08,09:00,68.5
2012-12-08,10:00,66.67
2012-12-08,11:00,50.67
2012-12-08,12:00,46.67
2012-12-08,13:00,40.67
2012-12-08,14:00,62.33
2012-12-08,15:00,69.5
2012-12-08,16:00,73.33
2012-12-08,17:00,79.67
2012-12-08,18:00,86.33
2012-12-08,19:00,86.5
2012-12-08,20:00,89.33
2012-12-08,21:00,91.83
2012-12-08,22:00,92.17
2012-12-08,23:00,91.67
2012-12-09,00:00,92.33
2012-12-09,01:00,94.83
2012-12-09,02:00,96
2012-12-09,03:00,98.33
2012-12-09,04:00,-999
2012-12-09,05:00,-999
2012-12-09,06:00,-999
2012-12-09,07:00,98.5
2012-12-09,08:00,90.67
2012-12-09,09:00,74.67
2012-12-09,10:00,61.67
2012-12-09,11:00,50.33
2012-12-09,12:00,48
2012-12-09,13:00,62.5
2012-12-09,14:00,65
2012-12-09,15:00,66.17
2012-12-09,16:00,65.17
2012-12-09,17:00,72.5
2012-12-09,18:00,81.67
2012-12-09,19:00,84.83
2012-12-09,20:00,86
2012-12-09,21:00,86
2012-12-09,22:00,90.5
2012-12-09,23:00,93.5
2012-12-10,00:00,93.17
2012-12-10,01:00,95.67
2012-12-10,02:00,96.17
2012-12-10,03:00,96.67
2012-12-10,04:00,98.17
2012-12-10,05:00,98
2012-12-10,06:00,97
2012-12-10,07:00,96
2012-12-10,08:00,90.83
2012-12-10,09:00,81
2012-12-10,10:00,60.17
2012-12-10,11:00,55.67
2012-12-10,12:00,61.17
2012-12-10,13:00,82.33
2012-12-10,14:00,66.67
2012-12-10,15:00,69.17
2012-12-10,16:00,67.5
2012-12-10,17:00,74.17
2012-12-10,18:00,83.33
2012-12-10,19:00,84.5
2012-12-10,20:00,87.17
2012-12-10,21:00,87.5
2012-12-10,22:00,89.33
2012-12-10,23:00,94.17
2012-12-11,00:00,94.67
2012-12-11,01:00,93.33
2012-12-11,02:00,97.83
2012-12-11,03:00,98.33
2012-12-11,04:00,99.17
2012-12-11,05:00,-999
2012-12-11,06:00,-999
2012-12-11,07:00,99.83
2012-12-11,08:00,89.33
2012-12-11,09:00,76.83
2012-12-11,10:00,59.17
2012-12-11,11:00,50.5
2012-12-11,12:00,43.33
2012-12-11,13:00,67.17
2012-12-11,14:00,60.17
2012-12-11,15:00,59.83
2012-12-11,16:00,73.5
2012-12-11,17:00,73
2012-12-11,18:00,80.33
2012-12-11,19:00,83
2012-12-11,20:00,88.17
2012-12-11,21:00,90.5
2012-12-11,22:00,89.67
2012-12-11,23:00,93
2012-12-12,00:00,95.33
2012-12-12,01:00,98.17
2012-12-12,02:00,97.83
2012-12-12,03:00,95.33
2012-12-12,04:00,93.17
2012-12-12,05:00,94.5
2012-12-12,06:00,95.83
2012-12-12,07:00,95
2012-12-12,08:00,76.17
2012-12-12,09:00,62.5
2012-12-12,10:00,59
2012-12-12,11:00,56.33
2012-12-12,12:00,55.83
2012-12-12,13:00,54
2012-12-12,14:00,56
2012-12-12,15:00,56.5
2012-12-12,16:00,60.33
2012-12-12,17:00,58.67
2012-12-12,18:00,67.5
2012-12-12,19:00,77
2012-12-12,20:00,80.17
2012-12-12,21:00,75.33
2012-12-12,22:00,78.83
2012-12-12,23:00,79.5
2012-12-13,00:00,84.83
2012-12-13,01:00,83.67
2012-12-13,02:00,85.83
2012-12-13,03:00,89.67
2012-12-13,04:00,88.5
2012-12-13,05:00,87.33
2012-12-13,06:00,91.17
2012-12-13,07:00,86
2012-12-13,08:00,72.83
2012-12-13,09:00,73.17
2012-12-13,10:00,66
2012-12-13,11:00,58.33
2012-12-13,12:00,60.33
2012-12-13,13:00,58.17
2012-12-13,14:00,52.83
2012-12-13,15:00,49.5
2012-12-13,16:00,48.5
2012-12-13,17:00,51.67
2012-12-13,18:00,58.83
2012-12-13,19:00,69.17
2012-12-13,20:00,70.33
2012-12-13,21:00,71.67
2012-12-13,22:00,70.67
2012-12-13,23:00,71.83
2012-12-14,00:00,73.5
2012-12-14,01:00,81.33
2012-12-14,02:00,82.67
2012-12-14,03:00,81.67
2012-12-14,04:00,79.5
2012-12-14,05:00,81.67
2012-12-14,06:00,83.67
2012-12-14,07:00,82.33
2012-12-14,08:00,78.83
2012-12-14,09:00,67.17
2012-12-14,10:00,65.67
2012-12-14,11:00,64.83
2012-12-14,12:00,63.33
2012-12-14,13:00,60.83
2012-12-14,14:00,57.67
2012-12-14,15:00,60
2012-12-14,16:00,61.33
2012-12-14,17:00,64
2012-12-14,18:00,69.83
2012-12-14,19:00,72.17
2012-12-14,20:00,72.67
2012-12-14,21:00,72.83
2012-12-14,22:00,75.33
2012-12-14,23:00,76.5
2012-12-15,00:00,78.5
2012-12-15,01:00,81.83
2012-12-15,02:00,88.5
2012-12-15,03:00,84.17
2012-12-15,04:00,89.33
2012-12-15,05:00,89
2012-12-15,06:00,90.83
2012-12-15,07:00,82.5
2012-12-15,08:00,67.5
2012-12-15,09:00,67
2012-12-15,10:00,58.17
2012-12-15,11:00,60.83
2012-12-15,12:00,58.83
2012-12-15,13:00,55.33
2012-12-15,14:00,51.5
2012-12-15,15:00,53.17
2012-12-15,16:00,49.17
2012-12-15,17:00,56.5
2012-12-15,18:00,82.83
2012-12-15,19:00,86.33
2012-12-15,20:00,87
2012-12-15,21:00,90.67
2012-12-15,22:00,93.5
2012-12-15,23:00,91.17
2012-12-16,00:00,91.17
2012-12-16,01:00,92.33
2012-12-16,02:00,90.5
2012-12-16,03:00,92.33
2012-12-16,04:00,94.83
2012-12-16,05:00,96.67
2012-12-16,06:00,95
2012-12-16,07:00,93.5
2012-12-16,08:00,85.17
2012-12-16,09:00,80.83
2012-12-16,10:00,71.5
2012-12-16,11:00,67.83
2012-12-16,12:00,65.33
2012-12-16,13:00,59.5
2012-12-16,14:00,56.83
2012-12-16,15:00,58.83
2012-12-16,16:00,61.67
2012-12-16,17:00,62.33
2012-12-16,18:00,69.5
2012-12-16,19:00,83.33
2012-12-16,20:00,85
2012-12-16,21:00,86.33
2012-12-16,22:00,92.17
2012-12-16,23:00,89.67
2012-12-17,00:00,96.33
2012-12-17,01:00,96.33
2012-12-17,02:00,92.17
2012-12-17,03:00,92.5
2012-12-17,04:00,95.5
2012-12-17,05:00,96.5
2012-12-17,06:00,95.5
2012-12-17,07:00,97.5
2012-12-17,08:00,77.83
2012-12-17,09:00,60.83
2012-12-17,10:00,51.5
2012-12-17,11:00,55.33
2012-12-17,12:00,48.33
2012-12-17,13:00,47.33
2012-12-17,14:00,42.5
2012-12-17,15:00,56.17
2012-12-17,16:00,70.5
2012-12-17,17:00,69.83
2012-12-17,18:00,83
2012-12-17,19:00,88.67
2012-12-17,20:00,90.17
2012-12-17,21:00,88.33
2012-12-17,22:00,89.67
2012-12-17,23:00,91.83
2012-12-18,00:00,96.5
2012-12-18,01:00,97.5
2012-12-18,02:00,97.33
2012-12-18,03:00,99
2012-12-18,04:00,98.67
2012-12-18,05:00,96.67
2012-12-18,06:00,100
2012-12-18,07:00,-999
2012-12-18,08:00,84.83
2012-12-18,09:00,68
2012-12-18,10:00,61.67
2012-12-18,11:00,57.67
2012-12-18,12:00,56.17
2012-12-18,13:00,49.83
2012-12-18,14:00,49.67
2012-12-18,15:00,45.83
2012-12-18,16:00,51
2012-12-18,17:00,54.83
2012-12-18,18:00,60.83
2012-12-18,19:00,67
2012-12-18,20:00,69.83
2012-12-18,21:00,85
2012-12-18,22:00,85.67
2012-12-18,23:00,86
2012-12-19,00:00,86.83
2012-12-19,01:00,88.33
2012-12-19,02:00,95.5
2012-12-19,03:00,94.83
2012-12-19,04:00,94.17
2012-12-19,05:00,93
2012-12-19,06:00,92.17
2012-12-19,07:00,90.17
2012-12-19,08:00,79.67
2012-12-19,09:00,75
2012-12-19,10:00,64.33
2012-12-19,11:00,54.17
2012-12-19,12:00,51.33
2012-12-19,13:00,48.5
2012-12-19,14:00,49
2012-12-19,15:00,45
2012-12-19,16:00,49.83
2012-12-19,17:00,50.17
2012-12-19,18:00,53.33
2012-12-19,19:00,58.83
2012-12-19,20:00,65.5
2012-12-19,21:00,71.5
2012-12-19,22:00,72.33
2012-12-19,23:00,73.83
2012-12-20,00:00,87.33
2012-12-20,01:00,89.83
2012-12-20,02:00,89.33
2012-12-20,03:00,94.17
2012-12-20,04:00,90
2012-12-20,05:00,92.67
2012-12-20,06:00,92.83
2012-12-20,07:00,92
2012-12-20,08:00,82.17
2012-12-20,09:00,66
2012-12-20,10:00,65.17
2012-12-20,11:00,58.67
2012-12-20,12:00,59.67
2012-12-20,13:00,56.33
2012-12-20,14:00,51.17
2012-12-20,15:00,48.67
2012-12-20,16:00,49.5
2012-12-20,17:00,50.83
2012-12-20,18:00,57.67
2012-12-20,19:00,67
2012-12-20,20:00,69.83
2012-12-20,21:00,72.17
2012-12-20,22:00,73.17
2012-12-20,23:00,72
2012-12-21,00:00,87.67
2012-12-21,01:00,93.5
2012-12-21,02:00,94.67
2012-12-21,03:00,95.67
2012-12-21,04:00,95.33
2012-12-21,05:00,94
2012-12-21,06:00,91.33
2012-12-21,07:00,88.67
2012-12-21,08:00,74.67
2012-12-21,09:00,63
2012-12-21,10:00,61.33
2012-12-21,11:00,56.33
2012-12-21,12:00,52.17
2012-12-21,13:00,52.17
2012-12-21,14:00,49.5
2012-12-21,15:00,47.83
2012-12-21,16:00,50.5
2012-12-21,17:00,57.83
2012-12-21,18:00,63.33
2012-12-21,19:00,64.33
2012-12-21,20:00,66.83
2012-12-21,21:00,68.33
2012-12-21,22:00,70.5
2012-12-21,23:00,70.17
2012-12-22,00:00,77.17
2012-12-22,01:00,71.17
2012-12-22,02:00,77.83
2012-12-22,03:00,79
2012-12-22,04:00,82.5
2012-12-22,05:00,87.67
2012-12-22,06:00,91.67
2012-12-22,07:00,84.67
2012-12-22,08:00,68
2012-12-22,09:00,64.83
2012-12-22,10:00,61.67
2012-12-22,11:00,59.5
2012-12-22,12:00,57.5
2012-12-22,13:00,50.33
2012-12-22,14:00,49.17
2012-12-22,15:00,49.67
2012-12-22,16:00,50.5
2012-12-22,17:00,49.67
2012-12-22,18:00,57.5
2012-12-22,19:00,61.83
2012-12-22,20:00,67.67
2012-12-22,21:00,71.17
2012-12-22,22:00,76
2012-12-22,23:00,80
2012-12-23,00:00,85.5
2012-12-23,01:00,83.83
2012-12-23,02:00,80.67
2012-12-23,03:00,83.17
2012-12-23,04:00,84.83
2012-12-23,05:00,82
2012-12-23,06:00,83.17
2012-12-23,07:00,83
2012-12-23,08:00,82.67
2012-12-23,09:00,78.83
2012-12-23,10:00,67.67
2012-12-23,11:00,57.33
2012-12-23,12:00,55.17
2012-12-23,13:00,54.83
2012-12-23,14:00,60.17
2012-12-23,15:00,56
2012-12-23,16:00,52.17
2012-12-23,17:00,56.67
2012-12-23,18:00,64.33
2012-12-23,19:00,69
2012-12-23,20:00,72.5
2012-12-23,21:00,73
2012-12-23,22:00,74.17
2012-12-23,23:00,68.33
2012-12-24,00:00,66
2012-12-24,01:00,67.83
2012-12-24,02:00,69.33
2012-12-24,03:00,70.67
2012-12-24,04:00,71.5
2012-12-24,05:00,72
2012-12-24,06:00,73.33
2012-12-24,07:00,74.17
2012-12-24,08:00,70.5
2012-12-24,09:00,66.17
2012-12-24,10:00,62.33
2012-12-24,11:00,60.33
2012-12-24,12:00,56
2012-12-24,13:00,54.67
2012-12-24,14:00,53.5
2012-12-24,15:00,52.5
2012-12-24,16:00,52.83
2012-12-24,17:00,54.5
2012-12-24,18:00,60.67
2012-12-24,19:00,63.33
2012-12-24,20:00,65.67
2012-12-24,21:00,68.83
2012-12-24,22:00,70
2012-12-24,23:00,66.17
2012-12-25,00:00,64.5
2012-12-25,01:00,64.33
2012-12-25,02:00,66.83
2012-12-25,03:00,68.83
2012-12-25,04:00,71.67
2012-12-25,05:00,72.17
2012-12-25,06:00,73.5
2012-12-25,07:00,75.83
2012-12-25,08:00,74.33
2012-12-25,09:00,67.17
2012-12-25,10:00,62.67
2012-12-25,11:00,60
2012-12-25,12:00,58
2012-12-25,13:00,53
2012-12-25,14:00,52.17
2012-12-25,15:00,49.83
2012-12-25,16:00,50
2012-12-25,17:00,52.67
2012-12-25,18:00,57.5
2012-12-25,19:00,61.17
2012-12-25,20:00,67
2012-12-25,21:00,69.83
2012-12-25,22:00,70
2012-12-25,23:00,70
2012-12-26,00:00,68.5
2012-12-26,01:00,67.67
2012-12-26,02:00,74.33
2012-12-26,03:00,79.33
2012-12-26,04:00,72.67
2012-12-26,05:00,73.17
2012-12-26,06:00,74.5
2012-12-26,07:00,67.67
2012-12-26,08:00,69.5
2012-12-26,09:00,63.5
2012-12-26,10:00,57
2012-12-26,11:00,54.33
2012-12-26,12:00,52.33
2012-12-26,13:00,47
2012-12-26,14:00,47.17
2012-12-26,15:00,46
2012-12-26,16:00,51.83
2012-12-26,17:00,54.33
2012-12-26,18:00,58.83
2012-12-26,19:00,65.17
2012-12-26,20:00,71.5
2012-12-26,21:00,72.67
2012-12-26,22:00,66.17
2012-12-26,23:00,70.5
2012-12-27,00:00,68.17
2012-12-27,01:00,71.83
2012-12-27,02:00,70
2012-12-27,03:00,77.83
2012-12-27,04:00,80
2012-12-27,05:00,76.83
2012-12-27,06:00,72.17
2012-12-27,07:00,75.33
2012-12-27,08:00,67.17
2012-12-27,09:00,62.67
2012-12-27,10:00,59.67
2012-12-27,11:00,57.17
2012-12-27,12:00,54.83
2012-12-27,13:00,52.83
2012-12-27,14:00,50.67
2012-12-27,15:00,47.5
2012-12-27,16:00,47.33
2012-12-27,17:00,47.83
2012-12-27,18:00,54.83
2012-12-27,19:00,62.5
2012-12-27,20:00,69.5
2012-12-27,21:00,68.17
2012-12-27,22:00,66.5
2012-12-27,23:00,70.5
2012-12-28,00:00,71.67
2012-12-28,01:00,81.83
2012-12-28,02:00,81.83
2012-12-28,03:00,86.5
2012-12-28,04:00,86.5
2012-12-28,05:00,88.5
2012-12-28,06:00,89.67
2012-12-28,07:00,86.67
2012-12-28,08:00,73
2012-12-28,09:00,63.83
2012-12-28,10:00,56.17
2012-12-28,11:00,55.67
2012-12-28,12:00,47.33
2012-12-28,13:00,50.5
2012-12-28,14:00,49.33
2012-12-28,15:00,48.83
2012-12-28,16:00,47
2012-12-28,17:00,47.5
2012-12-28,18:00,54.5
2012-12-28,19:00,61.17
2012-12-28,20:00,67.33
2012-12-28,21:00,71
2012-12-28,22:00,70
2012-12-28,23:00,70.5
2012-12-29,00:00,70.33
2012-12-29,01:00,75.17
2012-12-29,02:00,78
2012-12-29,03:00,83
2012-12-29,04:00,83
2012-12-29,05:00,84
2012-12-29,06:00,87.17
2012-12-29,07:00,80
2012-12-29,08:00,71
2012-12-29,09:00,66.67
2012-12-29,10:00,60
2012-12-29,11:00,56.5
2012-12-29,12:00,53.5
2012-12-29,13:00,51.5
2012-12-29,14:00,50.5
2012-12-29,15:00,49.33
2012-12-29,16:00,48.83
2012-12-29,17:00,52
2012-12-29,18:00,57.67
2012-12-29,19:00,61
2012-12-29,20:00,65.83
2012-12-29,21:00,66.83
2012-12-29,22:00,71.17
2012-12-29,23:00,76.17
2012-12-30,00:00,82.33
2012-12-30,01:00,82.5
2012-12-30,02:00,88.33
2012-12-30,03:00,77.5
2012-12-30,04:00,79.17
2012-12-30,05:00,80.17
2012-12-30,06:00,83.5
2012-12-30,07:00,75.33
2012-12-30,08:00,62
2012-12-30,09:00,60.5
2012-12-30,10:00,59.17
2012-12-30,11:00,56.17
2012-12-30,12:00,56.5
2012-12-30,13:00,54.33
2012-12-30,14:00,50.5
2012-12-30,15:00,51.17
2012-12-30,16:00,50.67
2012-12-30,17:00,53.17
2012-12-30,18:00,70
2012-12-30,19:00,81
2012-12-30,20:00,83.5
2012-12-30,21:00,90.83
2012-12-30,22:00,74.67
2012-12-30,23:00,77.83
2012-12-31,00:00,66.83
2012-12-31,01:00,65.17
2012-12-31,02:00,66
2012-12-31,03:00,66.67
2012-12-31,04:00,67
2012-12-31,05:00,68.67
2012-12-31,06:00,70.17
2012-12-31,07:00,71.17
2012-12-31,08:00,70.67
2012-12-31,09:00,65.33
2012-12-31,10:00,61.83
2012-12-31,11:00,60.33
2012-12-31,12:00,55
2012-12-31,13:00,53.83
2012-12-31,14:00,52.5
2012-12-31,15:00,53.17
2012-12-31,16:00,51.83
2012-12-31,17:00,55.17
2012-12-31,18:00,59.33
2012-12-31,19:00,60.5
2012-12-31,20:00,62
2012-12-31,21:00,62.17
2012-12-31,22:00,64.33
2012-12-31,23:00,65.83
